Regional Weather Roundup
Issued by NWS

Home | Current Version | Previous Version | Graphics & Text | Print | Product List | Glossary On
Versions: 1 2 3 4 5 6 7 8 9 10 11 12 13 14 15 16 17 18 19 20 21 22 23 24 25 26 27 28 29 30 31 32 33 34 35 36 37 38 39 40 41 42 43 44 45 46 47 48 49 50
249
ASUS45 KSLC 240910
RWRUT

UTAH REGIONAL WEATHER ROUNDUP
NATIONAL WEATHER SERVICE SALT LAKE CITY UT
200 AM MST FRI FEB 24 2017

UTZ001>011-023>025-241000-

NORTHERN UTAH

CITY           SKY/WX    TMP DP  RH WIND       PRES   REMARKS
BRIGHAM CITY     N/A     27  23  85 N3        29.94R
HILL AFB       FLURRIES  22  20  93 CALM      29.91R
LOGAN          LGT SNOW  27  23  85 CALM      29.92R FOG
OGDEN          LGT SNOW  24  22  91 W3        29.92R FOG
SALT LAKE CITY FLURRIES  28  23  81 N3        29.93R
TOOELE VALLEY  CLOUDY    30  23  74 CALM      29.95S
WENDOVER       MOCLDY    28   9  43 NW12      29.96R WCI  18
HEBER CITY     CLOUDY    10   7  85 E3        29.85S
WEST JORDAN    CLOUDY    28  28 100 CALM      29.93S

$$

UTZ011>015-024>027-241000-

CENTRAL/NORTHEAST UTAH

CITY           SKY/WX    TMP DP  RH WIND       PRES   REMARKS
PROVO AIRPORT  CLOUDY    27  20  75 N7        29.94R WCI  19
MOAB/CANYONLAN MOCLDY    27  15  61 CALM      29.83S
DELTA          CLOUDY    23  21  93 CALM      29.94R
PRICE          PTCLDY    21  12  68 N3        29.82R
RICHFIELD      MOCLDY    23  23 100 NE6       29.92S WCI  16
ROOSEVELT      CLOUDY    27  23  86 SW5       29.84S WCI  21
VERNAL         CLOUDY    22  20  92 CALM      29.82R

$$

UTZ013>016-019>022-027-241000-

SOUTHERN UTAH

CITY           SKY/WX    TMP DP  RH WIND       PRES   REMARKS
BRYCE CANYON   PTCLDY    11   6  81 W7        29.83S WCI   0
CEDAR CITY     CLOUDY    24  15  68 CALM      29.90R
MILFORD        CLOUDY    22  20  92 NW7       29.93R WCI  13
ST GEORGE      MOSUNNY   38  19  46 SW13      29.98R WCI  30
HANKSVILLE     PTCLDY    30  10  43 CALM      29.88S
KANAB          CLEAR     23  19  86 NW2       29.97R
BLANDING       PTCLDY    23  17  76 NW5       29.90S WCI  17

$$

REGIONAL REPORTS     COLORADO/ARIZONA

CITY           SKY/WX    TMP DP  RH WIND       PRES   REMARKS
CRAIG, CO      CLOUDY    20  14  77 W8        29.78R WCI  10
GRAND JUNCTION PTCLDY    24  22  91 CALM      29.82S
RIFLE, CO      CLOUDY    24  22  91 W5        29.82S WCI  18
MONTROSE, CO   CLOUDY    21  12  68 SE5       29.84R WCI  15
CORTEZ, CO     CLOUDY    23  17  78 NE3       29.83S
COLORADO CITY    N/A     25  19  80 CALM      29.96R
PAGE, AZ       CLEAR     35   7  31 NW3       29.91R
GRAND CANYON   MOCLDY    19  12  74 SW5       29.92R WCI  12
KINGMAN, AZ    CLEAR     31   1  28 CALM      30.00R
FLAGSTAFF, AZ  CLEAR     21   5  50 W6        29.91S WCI  13

$$

REGIONAL REPORTS    NEVADA/IDAHO/WYOMING

CITY           SKY/WX    TMP DP  RH WIND       PRES   REMARKS
LAS VEGAS, NV  CLEAR     46   7  20 NW9       30.01R
ELY, NY        CLOUDY    16   9  74 W8        29.94R WCI   5
ELKO, NV       CLOUDY    21  14  74 SW6       29.99S WCI  13
POCATELLO, ID  LGT SNOW  23  21  92 SW24      29.89R FOG     WCI   7
BURLEY, ID     FLURRIES  26  17  68 W20G31    29.90S WCI  12
FORT BRIDGER,  SNOW      17  17 100 W7        29.81S VSB 1/2 WCI   8
EVANSTON, WY   CLOUDY    14  10  84 W9        29.79R WCI   2
ROCK SPRINGS,  CLOUDY    15   9  76 NE6       29.78R WCI   6

$$




USA.gov is the U.S. government's official web portal to all federal, state and local government web resources and services.